Location: Bern�tre
(50.1974°N, 2.0915°E)
Time: 05:17:35
(UTC+00:00)

Cosmos 1707 - Pass Details

Date: 18 September 2020
Orbit: 515 x 530 km, 82.5° (Epoch: 29 October)

Event Time Altitude Azimuth Distance (km) Brightness Sun altitude
Rises 19:15:02 0° 349° (NNW) 2,656 6.7 -13.0°
Reaches altitude 10° 19:17:11 10° 348° (NNW) 1,761 5.8 -13.3°
Maximum altitude 19:21:03 82° 262° (W) 529 2.7 -13.9°
Drops below altitude 10° 19:24:52 10° 174° (S) 1,741 5.1 -14.4°
Enters shadow 19:26:00 - 174° (S) 2,208 5.6 -14.6°
